State College, PA

4:15 PM EDT on August 21, 2017 (GMT -0400)
University Park

Weather History for KUNV - May, 2014

Change the Weather History Date:

Thursday, May 15, 2014

  Actual Average Record
Temperature  
Mean Temperature 68 °F -  
Max Temperature 75 °F 69 °F 91 °F (1962)
Min Temperature 58 °F 46 °F 33 °F (1936)
Cooling Degree Days 4    
Growing Degree Days 18 (Base 50)    
Moisture  
Dew Point 60 °F    
Average Humidity 83    
Maximum Humidity 97    
Minimum Humidity 53    
Precipitation  
Precipitation 0.28 in - - ()
Sea Level Pressure  
Sea Level Pressure 30.02 in    
Wind  
Wind Speed 7 mph (South)    
Max Wind Speed 20 mph    
Max Gust Speed 29 mph    
Visibility 8 miles    
Events Rain , Thunderstorm    
Averages and records for this station are not official NWS values.
T = Trace of Precipitation, MM = Missing Value Source: NWS Daily Summary

Daily Weather History Graph

Daily Weather History Graph

Search for Another Location

Airport or City:

Trip Planner

Search our weather history database for the weather conditions in past years. The results will help you decide how hot, cold, wet, or windy it might be!

Date:

Astronomy

May. 15, 2014 Rise Set
Actual Time 5:54 AM EDT 8:22 PM EDT
Civil Twilight 5:22 AM EDT 8:53 PM EDT
Nautical Twilight 4:44 AM EDT 9:32 PM EDT
Astronomical Twilight 4:01 AM EDT 10:15 PM EDT
Moon 9:28 PM EDT (5/15) 6:39 AM EDT (5/15)
Length of Visible Light 15h 30m
Length of Day
14h 28m
Full, 99% of the Moon is Illuminated
May 15
Full
May 21
Last Quarter
May 28
New
Jun 5
First Quarter
Jun 13
Full

Hourly Weather History & Observations

Time (EDT) Temp. Dew Point Humidity Pressure Visibility Wind Dir Wind Speed Gust Speed Precip Events Conditions
12:15 AM 62.8 °F 59.4 °F 89% 30.14 in 10.0 mi SSE 3.5 mph - N/A   Overcast
12:35 AM 63.0 °F 59.5 °F 89% 30.13 in 10.0 mi SSE 5.8 mph - N/A   Overcast
12:55 AM 63.1 °F 59.9 °F 89% 30.13 in 10.0 mi SSE 6.9 mph - N/A   Overcast
1:15 AM 63.1 °F 59.9 °F 89% 30.12 in 10.0 mi SE 4.6 mph - N/A   Overcast
1:35 AM 63.3 °F 59.9 °F 89% 30.11 in 10.0 mi SSE 5.8 mph - N/A   Overcast
1:55 AM 63.5 °F 60.1 °F 89% 30.11 in 10.0 mi SSE 6.9 mph - N/A   Overcast
2:15 AM 63.5 °F 60.3 °F 89% 30.10 in 10.0 mi SSE 6.9 mph - N/A   Overcast
2:35 AM 63.5 °F 60.4 °F 90% 30.10 in 10.0 mi SSE 6.9 mph - N/A   Overcast
2:55 AM 63.5 °F 60.8 °F 91% 30.09 in 7.0 mi South 6.9 mph - N/A   Overcast
3:15 AM 63.3 °F 60.8 °F 91% 30.09 in 7.0 mi South 5.8 mph - N/A   Overcast
3:35 AM 63.5 °F 60.8 °F 91% 30.08 in 7.0 mi SSE 6.9 mph - N/A   Overcast
3:55 AM 63.5 °F 61.0 °F 91% 30.08 in 7.0 mi SSE 5.8 mph - N/A   Overcast
4:15 AM 63.3 °F 60.8 °F 91% 30.08 in 10.0 mi SSE 5.8 mph - N/A   Overcast
4:35 AM 63.5 °F 60.8 °F 91% 30.08 in 10.0 mi SSE 4.6 mph - N/A   Overcast
4:55 AM 63.1 °F 60.8 °F 92% 30.07 in 10.0 mi SSE 3.5 mph - N/A   Overcast
5:15 AM 63.7 °F 60.8 °F 90% 30.07 in 10.0 mi SSE 6.9 mph - N/A   Overcast
5:35 AM 63.7 °F 60.8 °F 90% 30.06 in 10.0 mi ESE 6.9 mph - N/A   Overcast
5:53 AM 64.4 °F 60.8 °F 88% 30.06 in 7.0 mi SSE 9.2 mph - N/A   Overcast
6:53 AM 64.4 °F 60.8 °F 88% 30.06 in 7.0 mi East 9.2 mph - N/A   Overcast
7:53 AM 66.2 °F 60.8 °F 83% 30.06 in 10.0 mi ESE 8.1 mph - N/A   Overcast
8:53 AM 64.4 °F 62.6 °F 94% 30.06 in 10.0 mi South 9.2 mph - N/A   Overcast
9:53 AM 69.8 °F 60.8 °F 73% 30.05 in 10.0 mi SSE 13.8 mph 19.6 mph N/A   Mostly Cloudy
10:53 AM 69.8 °F 59.0 °F 68% 30.03 in 10.0 mi South 11.5 mph 19.6 mph N/A   Mostly Cloudy
11:53 AM 71.6 °F 57.2 °F 60% 30.03 in 10.0 mi South 11.5 mph 18.4 mph N/A   Mostly Cloudy
12:53 PM 73.4 °F 57.2 °F 57% 30.01 in 10.0 mi South 19.6 mph 27.6 mph N/A   Overcast
12:54 PM 73.4 °F 57.2 °F 57% 30.01 in 10.0 mi South 19.6 mph 27.6 mph N/A   Mostly Cloudy
1:53 PM 75.2 °F 57.2 °F 53% 29.98 in 10.0 mi South 17.3 mph - N/A   Mostly Cloudy
3:53 PM 75.2 °F 59.0 °F 57% 29.95 in 10.0 mi South 18.4 mph - N/A   Mostly Cloudy
4:53 PM 75.2 °F 60.8 °F 61% 29.95 in 7.0 mi SSW 11.5 mph 23.0 mph N/A Rain Light Rain
5:53 PM 71.6 °F 60.8 °F 69% 29.93 in 10.0 mi SW 11.5 mph - N/A Rain Light Rain
6:13 PM 71.6 °F 60.8 °F 69% 29.93 in 5.0 mi SW 11.5 mph - N/A Rain , Thunderstorm Light Thunderstorms and Rain
6:23 PM 71.6 °F 60.8 °F 69% 29.93 in 2.0 mi SW 11.5 mph 28.8 mph N/A Rain , Thunderstorm Heavy Thunderstorms and Rain
6:27 PM 71.6 °F 60.8 °F 69% 29.93 in 2.0 mi SW 11.5 mph 28.8 mph N/A Rain Rain
6:33 PM 66.2 °F 60.8 °F 83% 29.95 in 5.0 mi South 11.5 mph - N/A Rain Light Rain
7:50 PM 64.4 °F 62.6 °F 94% 29.95 in 10.0 mi South 5.8 mph - N/A   Overcast
9:55 PM 64.0 °F 61.0 °F 90% 29.94 in 10.0 mi South 3.5 mph - N/A   Drizzle
10:15 PM 63.7 °F 61.2 °F 91% 29.94 in 10.0 mi South 4.6 mph - N/A   Drizzle
10:35 PM 63.9 °F 61.0 °F 90% 29.94 in 10.0 mi SSE 5.8 mph - N/A   Drizzle
10:55 PM 63.5 °F 61.2 °F 92% 29.92 in 10.0 mi South 3.5 mph - N/A   Drizzle
11:15 PM 63.3 °F 61.7 °F 94% 29.92 in 7.0 mi Calm Calm - 0.02 in Rain Rain
11:35 PM 62.8 °F 61.9 °F 97% 29.91 in 4.0 mi West 4.6 mph - 0.28 in Rain Heavy Rain
11:55 PM 58.5 °F 56.8 °F 94% 29.92 in 3.0 mi WNW 11.5 mph - 0.01 in Rain Heavy Rain